sat.trackr.live / text

‹ back to catalog

QPS-SAR-7 (TSUKUYOMI-II)

NORAD 59447 · 2024-066F

PAYLOAD ACTIVE UNKNOWN

§ Identity

Operator
Country
JPN
Launch date
2024-04-07
Launch site
AFETR
Launch vehicle
Mass (kg)
RCS (m²)

External: N2YO · Heavens-Above · Gunter

§ Orbital elements

Epoch: 2026-09-22T22:04:18.737184Z

Period
95.37 min
Inclination
45.6027°
Eccentricity
0.0001917
Mean motion
15.09971411 rev/d
Perigee alt
535.0 km
Apogee alt
537.6 km
Semi-major
6,914.4 km
B*
3.1775e-4
RAAN
91.9880°
Arg perigee
199.8042°
Mean anomaly
160.2769°
Rev number
13,499

§ Raw data

QPS-SAR-7 (TSUKUYOMI-II)1 59447U 24066F   26265.91966131  .00004989  00000+0  31775-3 0  99992 59447  45.6027  91.9880 0001917 199.8042 160.2769 15.09971411134996

JSON: /api/v1/satellites/59447 · /tle

For live sub-satellite position, see the globe view (requires WebGL).

§ Visibility from observer

Set your observer location to see the next 7 days of passes ≥ 10°. The values pass through the URL so the page stays shareable.

No JS? Fill the form by hand. The geolocation button needs JavaScript.